Theta_e
328 331 336 343 348 345 336 336 337 341 341 340 341 346 346 346 352 348 339 343 343 340 341 338 332 332 332 332 333 333 334 335 335 336 336 336 337 338 338 339 340 341 343 343 343 342 343 343 343
334 339 340 342 344 338 338 338 340 340 342 342 343 344 342 342 341 340 341 341 344 343 341 342 332 332 332 333 333 334 335 336 336 336 337 337 337 337 337 338 340 341 340 341 341 339 337 335 336
334 339 341 342 341 339 338 338 339 338 338 341 341 343 341 340 339 339 339 340 345 343 341 340 332 332 332 332 334 335 335 336 336 337 339 341 341 340 341 340 338 334 333 334 334 333 331 329 331
337 336 339 341 341 338 336 337 338 338 337 338 345 346 342 343 339 337 338 340 342 342 347 335 331 332 332 333 333 334 335 336 336 339 340 339 340 339 338 338 333 326 325 329 332 330 328 327 326
332 337 346 344 339 339 336 338 336 336 336 339 341 345 344 343 339 339 340 340 341 349 348 331 329 331 331 332 333 334 335 335 338 339 337 336 332 330 330 328 325 323 323 322 326 325 323 321 320
331 336 342 340 337 339 339 338 336 336 337 337 337 341 342 342 341 340 340 340 342 348 342 329 328 329 330 331 333 333 334 337 338 337 335 329 326 324 324 325 324 324 324 324 322 323 322 321 320
332 336 337 339 341 339 339 337 335 334 335 339 339 344 344 342 341 339 340 340 339 342 344 341 335 329 329 330 331 332 334 336 333 332 331 326 324 327 329 327 329 326 326 327 326 323 322 322 322
332 333 336 336 339 339 338 338 337 333 335 338 336 340 342 342 341 339 339 339 339 339 345 342 340 340 330 331 330 331 335 334 331 328 326 325 331 331 331 331 331 330 330 329 328 327 325 324 324
332 333 338 337 335 337 337 339 336 335 337 333 337 336 338 340 339 338 338 338 338 336 339 341 342 342 342 341 336 332 335 330 331 329 332 330 334 337 335 332 331 331 330 328 328 328 326 326 326
331 332 334 336 335 339 339 337 337 337 337 337 338 338 338 340 339 339 339 338 337 337 338 338 340 341 340 344 345 338 338 342 339 339 341 336 333 332 333 333 331 331 328 323 324 322 322 327 328
330 330 330 330 331 336 339 338 337 338 339 337 338 341 339 339 339 340 339 337 338 339 340 341 342 343 343 342 344 345 342 331 337 340 340 335 334 336 334 332 331 325 323 322 320 319 319 319 320
328 329 329 330 331 331 334 338 340 338 338 336 336 340 342 341 341 340 339 339 343 342 343 343 344 345 345 344 346 346 341 332 331 336 337 336 335 335 335 331 327 323 323 322 321 319 319 320 320
329 329 328 329 330 331 334 334 337 337 334 336 336 338 342 342 342 342 344 342 342 343 345 344 346 347 348 348 350 348 346 341 340 339 336 335 335 335 332 329 322 323 323 322 321 320 320 320 320
330 328 329 329 331 331 330 335 336 336 336 336 336 338 334 342 343 344 344 346 347 347 346 346 349 349 350 351 351 349 345 340 335 335 335 334 332 333 330 325 324 323 323 323 322 320 319 319 319
328 328 328 329 330 330 333 335 336 334 334 335 338 336 340 342 343 346 346 347 347 347 347 349 350 351 352 348 346 343 338 336 333 335 335 332 333 332 327 325 325 324 323 323 321 320 319 319 319
329 331 332 331 331 330 331 336 336 334 335 336 338 335 340 342 344 346 346 346 345 347 350 349 345 347 346 342 341 337 337 337 335 335 334 334 334 329 326 326 325 325 323 323 321 320 320 319 317
332 333 333 332 331 330 330 335 335 335 336 333 332 339 337 336 347 346 347 344 345 347 349 348 345 342 343 341 339 338 337 336 335 337 338 338 333 329 326 325 326 325 324 322 321 320 318 318 319
331 333 333 331 331 330 328 329 333 333 333 332 332 342 340 337 346 347 345 343 344 347 347 347 346 345 343 342 340 337 336 334 330 326 333 334 331 328 326 326 325 325 322 321 320 318 319 319 318
329 329 331 332 331 331 331 329 331 332 332 332 335 336 340 343 348 348 345 344 344 345 347 347 346 346 345 342 341 341 341 338 333 337 339 332 329 328 328 326 325 322 322 320 319 318 319 318 316
328 331 331 330 329 330 329 330 330 333 334 334 335 337 339 342 349 348 345 344 344 345 345 345 344 345 346 343 341 342 342 339 338 336 333 330 330 329 326 325 323 322 320 317 316 316 317 316 316
331 333 331 330 329 329 331 332 333 334 337 338 338 341 341 342 348 347 346 345 345 345 345 345 345 345 345 344 342 342 342 341 338 332 329 327 328 326 324 323 322 320 317 316 315 314 315 315 314
329 329 329 327 328 329 331 336 337 337 339 337 337 338 336 335 336 338 338 345 344 345 346 345 345 345 344 345 343 341 343 340 335 327 324 325 324 324 322 320 319 316 316 316 316 316 315 314 314
327 327 328 331 332 332 335 335 340 336 339 338 334 333 333 334 335 335 337 335 334 336 332 343 344 345 345 346 341 341 340 334 328 326 327 324 325 322 320 318 316 317 316 316 316 314 315 315 313
332 333 331 332 333 339 336 332 338 337 332 329 329 330 330 331 333 333 334 329 331 329 334 343 344 345 344 344 343 342 338 333 330 329 325 325 323 322 320 317 317 317 315 316 314 314 314 312 312
332 333 336 334 334 337 332 334 337 330 328 328 328 328 328 328 329 334 334 331 330 332 333 340 342 343 344 343 340 336 333 331 330 327 325 324 323 321 319 317 316 316 315 315 314 314 312 310 311
332 336 334 335 338 336 334 335 333 331 330 329 329 330 330 331 332 331 334 333 330 331 334 335 335 335 335 336 333 331 331 329 325 325 324 323 322 319 318 315 315 316 315 314 313 311 310 311 312
334 335 335 339 339 337 333 335 333 331 330 330 329 331 332 332 332 334 334 332 327 326 332 334 330 328 328 330 330 330 328 324 324 322 322 321 319 317 317 314 315 314 313 313 310 312 311 311 311
332 334 338 337 340 337 330 335 333 333 332 332 332 331 333 333 332 332 334 332 329 332 329 330 330 328 328 328 328 325 323 323 323 322 320 319 317 316 315 314 314 314 312 310 312 311 311 311 310
339 335 335 331 334 333 329 335 333 333 334 334 331 333 333 332 329 330 330 329 329 328 328 328 328 328 328 325 323 324 322 323 322 320 318 316 314 313 313 313 313 312 310 312 312 311 311 311 311
333 338 339 334 334 334 336 334 330 331 331 334 333 331 331 330 330 329 328 329 330 331 331 330 329 328 325 324 323 322 323 321 318 317 315 314 312 312 312 311 309 309 309 311 311 312 311 311 311
Wind_Speed
7 6 8 13 6 6 16 13 18 19 17 13 8 13 18 17 12 6 15 25 27 22 18 16 14 12 10 9 7 7 6 5 6 6 6 7 7 8 8 9 10 10 10 10 11 11 12 12 12
8 14 18 6 7 10 14 18 18 13 12 11 9 1 21 18 16 20 14 15 25 21 18 15 15 12 11 9 8 6 5 4 4 4 5 6 7 8 8 8 9 10 11 11 11 11 12 13 13
11 11 8 4 6 13 14 15 14 14 10 14 16 21 16 12 17 14 18 14 25 20 18 15 15 12 10 9 7 6 4 4 3 3 5 5 6 7 7 8 9 10 10 10 11 11 12 13 13
9 9 7 10 17 14 14 12 15 17 14 4 18 12 14 13 20 18 18 17 14 22 21 14 13 12 10 9 8 6 4 3 3 3 4 4 4 5 6 7 8 10 11 10 10 10 11 11 12
24 4 4 9 18 15 12 18 11 14 14 16 20 19 14 19 18 17 13 13 13 28 21 18 14 12 11 9 8 6 5 4 3 3 3 4 4 5 6 5 6 8 10 10 10 10 11 12 14
12 6 8 4 9 14 16 16 15 13 14 16 20 20 14 15 17 15 13 10 21 23 21 16 15 13 11 10 9 8 7 6 5 5 4 5 5 6 5 3 5 8 10 10 9 9 11 13 15
14 8 6 9 12 18 2 12 4 18 17 19 16 17 12 18 16 16 15 12 10 20 19 16 14 14 13 12 11 10 9 8 7 6 6 6 5 3 3 3 5 11 12 14 14 11 12 13 17
7 5 10 4 12 4 8 14 15 19 12 13 13 6 15 17 18 17 15 13 12 12 20 17 16 14 15 15 14 12 11 9 7 6 7 6 4 3 4 2 8 11 11 16 16 15 15 16 20
10 4 11 5 7 7 17 22 15 20 19 10 15 16 20 22 19 18 15 12 12 11 12 18 20 19 17 19 15 13 10 11 10 10 5 3 6 8 2 6 10 10 12 16 16 15 17 19 21
8 2 13 10 13 14 13 7 4 14 17 8 13 24 22 20 18 17 17 17 19 15 10 7 1 11 4 14 18 14 8 2 20 13 8 3 4 5 4 9 11 13 16 17 16 20 23 20 21
8 5 8 7 9 20 17 19 13 22 6 15 14 19 18 18 18 15 17 13 19 15 12 6 3 2 6 7 7 9 19 13 14 16 2 1 4 5 6 11 10 15 14 18 19 19 20 24 24
8 6 8 11 7 8 13 21 18 16 12 25 18 21 18 16 13 12 28 6 21 15 9 10 13 9 6 9 12 13 7 11 3 11 12 5 6 9 5 8 10 12 15 16 16 20 22 21 22
10 7 2 5 4 5 4 5 20 14 8 25 14 18 20 18 17 16 6 12 14 8 13 9 10 8 5 8 11 14 10 4 9 11 9 5 3 5 8 8 13 13 14 14 18 22 19 22 22
1 4 4 0 7 0 6 15 21 9 4 13 1 12 11 12 17 17 12 11 8 8 3 7 5 6 5 8 11 14 10 8 10 6 6 6 6 4 6 9 13 15 13 13 20 22 20 20 22
5 6 10 7 5 6 3 9 12 28 22 4 16 16 20 17 20 15 12 13 14 11 5 6 0 2 3 4 5 5 7 3 9 9 6 7 3 6 7 10 14 15 17 17 21 20 20 19 20
13 6 7 4 4 4 5 11 15 17 18 13 12 18 11 20 21 21 13 11 11 11 10 5 1 5 2 3 3 6 5 4 6 7 6 7 4 4 7 10 14 16 17 18 19 19 16 21 26
5 7 14 7 2 6 7 8 13 18 19 6 7 17 17 17 13 20 15 12 15 11 11 6 4 3 4 5 5 6 6 8 8 11 17 14 5 5 10 11 14 17 16 18 19 16 22 24 21
2 12 10 1 4 9 12 17 16 11 6 7 11 17 20 33 15 17 11 14 18 14 10 8 6 5 5 4 5 8 5 7 8 20 20 10 3 6 9 11 15 13 18 18 20 25 22 21 18
8 8 13 11 6 5 12 16 3 4 8 7 7 7 5 1 27 27 13 11 13 13 10 8 8 6 6 8 9 10 7 7 16 14 11 5 5 8 11 12 11 17 17 18 19 23 17 15 18
8 16 13 10 15 9 13 13 9 10 7 5 8 3 6 1 22 18 2 13 13 13 10 9 6 7 7 8 8 5 8 8 8 8 6 10 6 6 11 11 14 15 12 16 19 15 15 15 16
11 8 12 15 14 16 13 13 3 6 8 4 2 9 6 5 19 17 27 15 18 17 14 9 7 5 7 6 5 9 9 10 10 3 6 2 5 10 12 12 15 8 11 13 18 20 16 15 14
5 9 13 15 12 12 1 10 13 9 24 10 6 6 4 2 13 19 2 27 16 21 24 14 9 7 8 7 5 5 4 10 8 9 9 13 13 15 12 12 7 10 9 13 14 14 19 18 13
13 15 14 12 12 14 11 9 7 14 12 17 7 3 4 6 15 12 22 33 43 21 31 14 12 8 5 6 5 4 8 8 10 10 11 14 10 10 15 9 10 7 11 15 14 21 19 16 16
12 20 17 14 7 3 14 8 9 5 3 5 11 8 7 7 12 6 17 22 15 16 24 18 14 10 6 5 6 6 6 7 8 10 13 11 14 17 16 9 9 12 16 14 17 17 17 19 19
8 11 7 3 5 5 9 8 8 9 11 11 9 10 10 11 12 14 10 16 22 25 10 12 12 7 8 7 8 7 5 6 11 8 6 14 15 12 12 13 14 14 14 15 17 17 19 17 17
9 9 8 11 9 10 16 8 8 11 10 8 8 11 11 15 16 12 22 25 43 51 7 4 2 2 1 4 4 2 4 6 11 15 12 15 14 16 14 13 16 15 14 16 16 19 18 14 15
5 8 15 8 2 1 6 14 14 5 6 8 14 15 15 13 8 18 18 20 17 19 20 1 6 8 8 4 1 4 1 7 12 14 16 17 19 18 15 21 17 16 15 16 18 14 17 16 15
6 10 5 6 3 8 12 7 5 11 15 15 15 14 14 13 18 15 14 17 18 5 12 6 8 14 15 8 5 7 9 11 13 14 17 20 17 17 19 19 16 14 20 18 14 17 16 14 15
22 1 6 3 9 8 8 6 18 10 10 10 9 13 12 14 14 14 16 19 24 22 19 18 19 18 17 13 12 9 11 11 13 16 17 15 19 22 23 19 16 17 17 15 15 14 14 13 14
14 4 7 3 6 8 10 4 11 7 7 8 10 12 13 11 11 11 14 20 21 25 27 28 28 19 17 13 10 11 11 15 17 16 14 16 20 19 17 17 20 16 15 15 14 12 12 14 15
Wind_Direction
296 249 232 246 315 257 93 87 63 74 62 60 46 130 79 144 173 171 161 121 119 127 141 138 138 133 131 131 127 117 105 94 77 58 50 46 41 38 37 36 36 33 27 20 16 12 6 2 356
291 284 259 306 233 95 83 75 66 94 128 130 130 148 79 71 88 125 113 124 122 129 136 150 147 143 143 140 135 125 115 92 73 64 51 46 42 38 32 33 34 27 23 18 14 11 7 4 359
310 254 263 60 259 91 88 95 104 79 50 114 83 56 80 99 116 120 129 150 123 131 148 161 152 148 147 148 142 138 132 116 104 79 66 52 46 47 35 39 42 34 26 17 15 10 10 7 4
278 310 352 333 95 70 98 110 123 105 91 50 92 78 75 54 115 124 141 151 143 140 146 158 157 154 156 157 157 158 150 148 127 93 74 60 54 52 52 47 42 34 25 14 8 8 6 3 356
263 116 82 278 104 97 96 94 93 99 76 91 105 99 87 89 106 121 132 137 160 127 138 155 165 166 166 169 171 175 173 166 143 137 111 95 87 84 78 67 51 37 22 10 356 354 352 348 343
279 85 209 280 12 84 73 80 71 102 119 87 87 83 97 119 125 132 143 160 127 128 134 152 168 175 178 181 186 185 188 176 174 169 142 124 117 90 75 62 38 17 4 355 342 331 334 333 329
290 233 160 151 81 67 226 90 206 78 82 75 75 106 143 124 130 138 149 141 164 131 139 154 169 181 188 193 196 195 193 187 184 173 166 151 142 84 56 55 19 358 349 346 332 317 305 310 311
315 320 296 69 107 172 133 76 1 87 95 116 125 148 118 128 136 143 139 150 162 156 145 155 177 189 200 203 202 199 197 198 194 177 174 179 184 208 204 18 330 335 341 344 336 330 309 303 310
276 278 28 274 86 71 98 99 245 62 16 89 146 128 124 137 140 138 144 148 165 160 151 169 189 189 205 198 207 197 197 196 208 202 174 235 254 248 174 298 309 334 324 335 329 324 321 309 305
262 315 185 172 144 120 139 134 132 112 310 350 109 116 134 143 138 140 168 175 165 155 159 174 36 164 145 190 203 197 195 332 306 209 190 320 42 6 313 342 331 354 340 343 345 335 330 312 305
274 340 4 82 35 141 178 115 166 130 129 243 242 137 145 152 147 168 188 151 157 137 139 135 190 228 262 281 205 145 170 231 311 316 147 177 348 1 357 1 20 351 344 346 340 335 327 321 329
278 64 339 48 65 300 61 139 144 122 199 210 221 149 148 163 177 166 104 172 108 120 143 168 181 193 241 275 299 308 270 214 293 186 183 123 32 12 7 339 346 333 337 331 332 330 320 319 318
269 105 303 103 260 288 150 219 148 142 173 219 126 150 161 174 168 158 147 114 137 163 153 180 151 172 215 275 297 312 344 132 178 199 131 95 53 340 345 340 332 336 326 328 334 317 316 318 316
218 354 329 344 284 91 296 49 3 342 300 185 117 162 71 172 161 157 159 130 114 87 108 102 162 184 226 246 287 299 313 314 342 71 68 34 351 314 349 336 336 331 331 327 327 315 319 320 313
272 255 229 206 191 297 44 71 126 275 296 103 212 72 351 259 154 138 142 150 156 151 118 98 142 112 228 274 280 285 312 8 5 36 359 346 349 311 348 332 330 336 332 327 320 323 322 320 331
254 7 290 318 229 199 248 132 194 220 247 236 138 145 133 294 151 137 152 147 122 131 123 137 80 139 211 238 253 276 349 40 4 347 321 315 293 334 316 318 321 327 329 319 317 319 331 337 324
71 324 321 283 99 346 292 200 176 217 245 330 301 132 117 233 156 135 151 171 138 133 138 148 161 165 181 224 244 270 292 47 7 332 306 281 190 326 322 310 316 319 317 319 320 334 329 320 309
259 188 221 149 189 14 330 323 153 184 69 333 294 152 153 208 156 110 181 170 134 137 147 157 167 178 198 240 253 254 234 170 201 282 253 264 287 321 301 304 310 318 327 321 327 326 314 304 314
307 307 28 11 18 331 337 298 291 323 24 340 359 308 304 177 104 158 203 141 122 135 148 163 169 181 202 238 248 267 223 270 219 242 230 279 298 274 285 301 309 323 318 324 328 316 318 322 317
301 342 25 342 338 318 302 303 318 65 48 16 343 303 274 191 117 174 49 145 154 159 156 163 185 193 212 237 256 286 299 305 286 282 260 269 241 271 298 297 314 304 321 324 318 338 327 319 315
40 320 349 321 318 296 300 259 191 90 118 109 29 11 0 12 158 153 202 127 197 160 158 171 180 197 213 238 286 279 294 303 301 6 313 58 276 300 302 301 296 296 324 318 317 314 313 307 306
66 15 317 306 311 302 237 53 83 48 15 345 132 138 98 62 264 92 101 214 183 184 152 152 163 185 211 206 241 277 287 282 300 330 334 334 327 310 312 310 299 327 318 311 305 306 303 296 294
333 324 296 283 285 283 26 319 84 73 76 253 121 101 174 220 97 125 205 61 358 77 336 156 146 178 184 195 225 254 265 300 335 341 334 323 328 336 331 328 332 318 321 302 297 308 308 299 296
353 311 299 287 318 76 263 272 120 133 83 24 22 15 354 304 120 202 107 120 154 163 194 149 161 166 185 214 245 258 290 310 313 306 308 328 342 337 325 332 322 311 313 295 311 308 304 307 303
289 335 317 320 213 155 247 55 350 53 32 22 23 358 341 323 309 126 126 155 188 216 71 139 144 171 201 224 244 249 259 299 286 310 357 339 320 316 315 334 327 315 300 307 311 302 308 310 301
9 357 1 331 357 329 15 52 360 347 51 3 359 351 355 3 25 27 21 45 43 348 57 26 249 198 239 231 258 8 327 320 337 335 346 323 322 330 317 329 322 314 312 314 304 304 309 309 296
55 354 17 318 142 262 246 112 208 354 20 3 6 359 2 7 355 71 63 66 96 201 263 105 16 358 347 328 302 283 244 11 350 338 332 331 332 324 319 326 316 319 322 307 307 312 303 303 294
356 358 68 287 21 328 351 57 349 15 20 24 17 355 10 20 41 22 102 144 188 239 5 54 26 10 7 324 13 62 20 5 342 336 338 335 335 336 327 323 324 326 312 315 314 306 309 299 302
295 258 306 342 19 333 327 41 3 340 3 41 6 42 16 5 4 20 42 33 43 39 29 16 14 358 44 46 34 28 12 357 358 345 339 338 334 330 327 332 332 318 324 313 317 313 313 307 303
5 12 360 2 3 329 306 91 9 35 10 57 22 33 35 29 23 352 36 60 38 33 30 23 22 48 39 30 19 3 17 3 355 346 346 340 337 339 346 337 323 327 321 322 316 318 318 311 313